Regional Weather Roundup
Issued by NWS

Home | Current Version | Previous Version | Text Only | Print | Product List | Glossary On
Versions: 1 2 3 4 5 6 7 8 9 10 11 12 13 14 15 16 17 18 19 20 21 22 23 24 25 26 27 28 29 30 31 32 33 34 35 36 37 38 39 40 41 42 43 44 45 46 47 48 49 50
000
ASUS43 KTOP 260659
RWRKS

WEATHER ROUNDUP FOR KANSAS
NATIONAL WEATHER SERVICE GOODLAND KS
200 AM CDT MON SEP 26 2016

NOTE:  "FAIR" INDICATES FEW OR NO CLOUDS BELOW 12,000 FEET WITH NO
SIGNIFICANT WEATHER AND/OR OBSTRUCTIONS TO VISIBILITY.

KSZ001>006-013>018-027>032-041>047-260800-
NORTHWEST KANSAS

CITY           SKY/WX    TMP DP  RH WIND       PRES   REMARKS
GOODLAND       CLEAR     42  35  76 W6        30.40S
HAYS           CLEAR     46  30  53 NW6       30.34S
HILL CITY      CLEAR     43  35  73 W6        30.36R
RUSSELL        CLEAR     48  39  71 NW7       30.32R
$$

KSZ061>065-074>080-084>089-260800-
SOUTHWEST KANSAS

CITY           SKY/WX    TMP DP  RH WIND       PRES   REMARKS
DODGE CITY     CLEAR     44  34  67 NW8       30.35S
ELKHART          N/A     51  31  46 NW3         N/A
GARDEN CITY    CLEAR     43  32  65 N10       30.37R
GREAT BEND     CLEAR     48  36  61 NW5       30.33R
LIBERAL        CLEAR     46  28  49 N5        30.38R
$$

KSZ066>073-081>083-090>101-260800-
SOUTHEAST KANSAS

CITY           SKY/WX    TMP DP  RH WIND       PRES   REMARKS
CHANUTE        PTCLDY    60  57  89 NW3       30.21F
COFFEYVILLE    CLOUDY    61  60  97 N5        30.21F
HUTCHINSON     CLEAR     54  42  64 N8        30.29S
MEDICINE LODGE   N/A     50  46  86 N3          N/A
NEWTON         CLEAR    N/A N/A N/A N8        30.28S
PARSONS        CLOUDY    60  59  96 N3        30.22F
WICHITA INTL   PTCLDY    58  48  69 N8        30.27R
WICHITA JABRA  CLEAR     53  47  79 N6        30.26S
WICHITA MCCONL CLEAR     55  45  70 N7        30.26S HAZE
WINFIELD       CLEAR     55  51  86 N5        30.26S
$$

KSZ007>012-019>026-033>040-048>060-102>105-260800-
NORTHEAST KANSAS

CITY           SKY/WX    TMP DP  RH WIND       PRES   REMARKS
CONCORDIA      CLEAR     49  41  74 NW9       30.30R
EMPORIA        CLEAR     53  48  83 NW7       30.25R
LAWRENCE       CLEAR     53  52  96 NW6       30.23S
MANHATTAN      CLEAR     50  45  83 CALM      30.27R
OLATHE IND     CLEAR     58  55  90 NW8       30.23R
OLATHE EXE     CLEAR     58  55  90 NW6       30.22R
SALINA         CLEAR     51  45  79 NW8       30.30R
TOPEKA BILLARD CLEAR     54  45  71 NW7       30.24R HAZE
TOPEKA FORBES  CLEAR     53  47  79 N3        30.24R HAZE
$$




USA.gov is the U.S. government's official web portal to all federal, state and local government web resources and services.